When you browse on this site, cookies collect data to enhance your experience and personalize the content and advertising you see.
Visit our Privacy Policy to learn more. By continuing to use the site, you agree to this use of cookies and data.
  • In Hungary
  • List of Countries
  • For 7 days
  • Water Temperature
  • Satellite Maps
  • Weather Map
  • News
  • Weather Widgets
  • user-avatar
    Login

    Hourly Weather Malanje

    Today, 26 April, Friday

    Time Temperature Precipitation Wind Pressure Humidity
    00:00 +20°C° 0.1 mm 0 mps 666 mmHg 92%
    01:00 +19°C° 0 mm 0 mps 666 mmHg 93%
    02:00 +19°C° 0.1 mm 0 mps 665 mmHg 93%
    03:00 +21°C° 0.1 mm 1 mps 665 mmHg 94%
    04:00 +21°C° 0.1 mm 1 mps 665 mmHg 94%
    05:00 +21°C° 0 mm 1 mps 665 mmHg 93%
    06:00 +21°C° 0 mm 1 mps 666 mmHg 93%
    07:00 +21°C° 0 mm 1 mps 666 mmHg 92%
    08:00 +23°C° 0 mm 1 mps 666 mmHg 85%
    09:00 +25°C° 0 mm 1 mps 666 mmHg 78%
    10:00 +27°C° 0 mm 2 mps 667 mmHg 71%
    11:00 +28°C° 0 mm 2 mps 666 mmHg 66%
    12:00 +29°C° 0 mm 2 mps 666 mmHg 61%
    13:00 +31°C° 0 mm 2 mps 666 mmHg 56%
    14:00 +30°C° 0.4 mm 2 mps 665 mmHg 60%
    15:00 +30°C° 0.4 mm 1 mps 665 mmHg 65%
    16:00 +29°C° 0.4 mm 1 mps 664 mmHg 69%
    17:00 +27°C° 1 mm 1 mps 664 mmHg 75%
    18:00 +25°C° 1 mm 1 mps 664 mmHg 81%
    19:00 +23°C° 1 mm 1 mps 664 mmHg 87%
    20:00 +23°C° 1.2 mm 1 mps 664 mmHg 88%
    21:00 +22°C° 1.2 mm 1 mps 664 mmHg 90%
    22:00 +22°C° 1.2 mm 1 mps 665 mmHg 91%
    23:00 +20°C° 0.1 mm 0 mps 665 mmHg 91%

    Tomorrow, 27 April, Saturday

    Time Temperature Precipitation Wind Pressure Humidity
    00:00 +20°C° 0.1 mm 0 mps 665 mmHg 91%
    01:00 +19°C° 0.1 mm 0 mps 665 mmHg 91%
    02:00 +19°C° 0 mm 0 mps 665 mmHg 92%
    03:00 +19°C° 0 mm 0 mps 664 mmHg 93%
    04:00 +19°C° 0 mm 0 mps 664 mmHg 94%
    05:00 +19°C° 0.5 mm 0 mps 664 mmHg 94%
    06:00 +21°C° 0.5 mm 1 mps 665 mmHg 95%
    07:00 +21°C° 0.5 mm 1 mps 665 mmHg 95%
    08:00 +23°C° 0.7 mm 1 mps 666 mmHg 92%
    09:00 +24°C° 0.7 mm 1 mps 666 mmHg 89%
    10:00 +25°C° 0.7 mm 2 mps 667 mmHg 86%
    11:00 +26°C° 0.4 mm 2 mps 666 mmHg 80%
    12:00 +27°C° 0.4 mm 2 mps 666 mmHg 74%
    13:00 +28°C° 0.4 mm 2 mps 666 mmHg 68%
    14:00 +27°C° 0.7 mm 2 mps 665 mmHg 72%
    15:00 +27°C° 0.7 mm 1 mps 665 mmHg 76%
    16:00 +27°C° 0.7 mm 1 mps 664 mmHg 80%
    17:00 +25°C° 0.1 mm 1 mps 664 mmHg 84%
    18:00 +24°C° 0.1 mm 1 mps 665 mmHg 87%
    19:00 +23°C° 0.1 mm 1 mps 665 mmHg 90%
    20:00 +23°C° 0 mm 1 mps 665 mmHg 91%
    21:00 +22°C° 0 mm 1 mps 665 mmHg 91%
    22:00 +22°C° 0 mm 1 mps 665 mmHg 92%
    23:00 +22°C° 0.1 mm 1 mps 665 mmHg 92%

    Day after tomorrow, 28 April, Sunday

    Time Temperature Precipitation Wind Pressure Humidity
    00:00 +22°C° 0.1 mm 1 mps 665 mmHg 91%
    01:00 +21°C° 0.1 mm 1 mps 665 mmHg 91%
    02:00 +21°C° 1.4 mm 1 mps 664 mmHg 93%
    03:00 +21°C° 1.4 mm 1 mps 664 mmHg 94%
    04:00 +20°C° 1.4 mm 1 mps 664 mmHg 96%
    05:00 +21°C° 0.6 mm 1 mps 664 mmHg 95%
    06:00 +21°C° 0.6 mm 1 mps 665 mmHg 95%
    07:00 +21°C° 0.6 mm 1 mps 665 mmHg 94%
    08:00 +23°C° 0.4 mm 1 mps 666 mmHg 90%
    09:00 +24°C° 0.4 mm 2 mps 667 mmHg 85%
    10:00 +26°C° 0.4 mm 2 mps 667 mmHg 81%
    11:00 +27°C° 0.2 mm 2 mps 667 mmHg 74%
    12:00 +28°C° 0.2 mm 2 mps 666 mmHg 67%
    13:00 +29°C° 0.2 mm 2 mps 666 mmHg 60%
    14:00 +29°C° 0.1 mm 2 mps 665 mmHg 63%
    15:00 +29°C° 0.1 mm 1 mps 665 mmHg 66%
    16:00 +29°C° 0.1 mm 1 mps 664 mmHg 69%
    17:00 +27°C° 0.3 mm 1 mps 664 mmHg 74%
    18:00 +23°C° 0.3 mm 0 mps 665 mmHg 79%
    19:00 +22°C° 0.3 mm 0 mps 665 mmHg 84%
    20:00 +21°C° 0 mm 0 mps 665 mmHg 84%
    21:00 +21°C° 0 mm 0 mps 666 mmHg 85%
    22:00 +21°C° 0 mm 0 mps 666 mmHg 85%
    23:00 +21°C° 0 mm 0 mps 666 mmHg 86%

    29 April, Monday

    Time Temperature Precipitation Wind Pressure Humidity
    00:00 +22°C° 0 mm 1 mps 665 mmHg 88%
    01:00 +22°C° 0 mm 1 mps 665 mmHg 89%
    02:00 +22°C° 0.4 mm 1 mps 665 mmHg 90%
    03:00 +22°C° 0.4 mm 1 mps 665 mmHg 91%
    04:00 +22°C° 0.4 mm 1 mps 665 mmHg 91%
    05:00 +22°C° 0.4 mm 1 mps 665 mmHg 91%
    06:00 +20°C° 0.4 mm 0 mps 666 mmHg 91%
    07:00 +20°C° 0.4 mm 0 mps 667 mmHg 91%
    08:00 +24°C° 0.2 mm 1 mps 667 mmHg 83%
    09:00 +26°C° 0.2 mm 1 mps 668 mmHg 76%
    10:00 +27°C° 0.2 mm 1 mps 668 mmHg 69%
    11:00 +28°C° 0.1 mm 2 mps 667 mmHg 63%
    12:00 +29°C° 0.1 mm 2 mps 667 mmHg 58%
    13:00 +30°C° 0.1 mm 2 mps 666 mmHg 52%
    14:00 +30°C° 0 mm 2 mps 666 mmHg 56%
    15:00 +30°C° 0 mm 2 mps 665 mmHg 59%
    16:00 +30°C° 0 mm 1 mps 665 mmHg 63%
    17:00 +28°C° 0 mm 1 mps 665 mmHg 66%
    18:00 +26°C° 0 mm 1 mps 665 mmHg 69%
    19:00 +25°C° 0 mm 1 mps 666 mmHg 73%
    20:00 +24°C° 0 mm 1 mps 666 mmHg 73%
    21:00 +24°C° 0 mm 1 mps 666 mmHg 74%
    22:00 +23°C° 0 mm 1 mps 666 mmHg 74%
    23:00 +23°C° 0 mm 1 mps 666 mmHg 75%

    30 April, Tuesday

    Time Temperature Precipitation Wind Pressure Humidity
    00:00 +22°C° 0 mm 1 mps 666 mmHg 77%
    01:00 +22°C° 0 mm 1 mps 665 mmHg 78%
    02:00 +22°C° 0 mm 1 mps 665 mmHg 80%
    03:00 +22°C° 0 mm 1 mps 665 mmHg 81%
    04:00 +22°C° 0 mm 1 mps 665 mmHg 82%
    05:00 +22°C° 0 mm 1 mps 666 mmHg 83%
    06:00 +22°C° 0 mm 1 mps 666 mmHg 83%
    07:00 +22°C° 0 mm 1 mps 667 mmHg 84%
    08:00 +24°C° 0 mm 2 mps 667 mmHg 77%
    09:00 +26°C° 0 mm 2 mps 668 mmHg 69%
    10:00 +28°C° 0 mm 3 mps 668 mmHg 62%
    11:00 +29°C° 0 mm 3 mps 667 mmHg 57%
    12:00 +30°C° 0 mm 3 mps 667 mmHg 52%
    13:00 +31°C° 0 mm 3 mps 666 mmHg 48%
    14:00 +30°C° 0 mm 2 mps 666 mmHg 52%
    15:00 +30°C° 0 mm 2 mps 665 mmHg 56%
    16:00 +30°C° 0 mm 1 mps 665 mmHg 60%
    17:00 +28°C° 0 mm 1 mps 665 mmHg 62%
    18:00 +27°C° 0 mm 1 mps 665 mmHg 65%
    19:00 +25°C° 0 mm 1 mps 665 mmHg 68%
    20:00 +25°C° 0 mm 1 mps 666 mmHg 70%
    21:00 +22°C° 0 mm 0 mps 666 mmHg 72%
    22:00 +21°C° 0 mm 0 mps 666 mmHg 74%
    23:00 +21°C° 0 mm 0 mps 666 mmHg 75%

    1 May, Wednesday

    Time Temperature Precipitation Wind Pressure Humidity
    00:00 +20°C° 0 mm 0 mps 665 mmHg 76%
    01:00 +20°C° 0 mm 0 mps 665 mmHg 78%
    02:00 +20°C° 0 mm 0 mps 665 mmHg 79%
    03:00 +19°C° 0 mm 0 mps 665 mmHg 80%
    04:00 +19°C° 0 mm 0 mps 665 mmHg 81%
    05:00 +19°C° 0 mm 0 mps 665 mmHg 82%
    06:00 +22°C° 0 mm 1 mps 666 mmHg 82%
    07:00 +22°C° 0 mm 1 mps 666 mmHg 83%
    08:00 +24°C° 0 mm 2 mps 667 mmHg 76%
    09:00 +26°C° 0 mm 2 mps 667 mmHg 69%
    10:00 +28°C° 0 mm 3 mps 667 mmHg 62%
    11:00 +29°C° 0 mm 3 mps 667 mmHg 57%
    12:00 +30°C° 0 mm 3 mps 666 mmHg 53%
    13:00 +31°C° 0 mm 2 mps 665 mmHg 49%
    14:00 +31°C° 0 mm 2 mps 665 mmHg 52%
    15:00 +30°C° 0 mm 2 mps 665 mmHg 54%
    16:00 +30°C° 0 mm 1 mps 665 mmHg 57%
    17:00 +28°C° 0 mm 1 mps 665 mmHg 61%
    18:00 +26°C° 0 mm 1 mps 665 mmHg 65%
    19:00 +24°C° 0 mm 1 mps 665 mmHg 69%
    20:00 +24°C° 0 mm 1 mps 665 mmHg 69%
    21:00 +23°C° 0 mm 1 mps 665 mmHg 70%
    22:00 +23°C° 0 mm 1 mps 665 mmHg 71%
    23:00 +22°C° 0 mm 1 mps 665 mmHg 71%
    Show more